Home > Weather > Bismarck > Past weeks

Flag for U.S.A. Weather for the Past 2 Weeks in Bismarck, North Dakota, U.S.A.

Now
20 °F

Light snow. Overcast.


Feels Like: 12 °F
Forecast: 19 / 28 °F
Wind: 6 mph from Southeast

Location: Bismarck Municipal Airport

Current Time: Feb 11, 2016 at 9:04:36 AM

Latest Report: Feb 11, 2016 at 7:59 AM


Visibility: 2 mi

Pressure: 30.12 "Hg (28.20 "Hg at 513m altitude)

Humidity: 78%

Dew point: 14 °F

Location of BismarckLocation

Historic Weather in Bismarck — Graph

°F

Bismarck Temperature Yesterday

Maximum temperature yesterday: 28 °F (at 12:52 AM)
Minimum temperature yesterday: 17 °F (at 10:52 PM)
Average temperature yesterday: 23 °F

High & Low Weather Summary for the Past Weeks

 TemperatureHumidityPressure
High53 °F (Feb 6, 3:52 PM)89% (Jan 31, 12:52 AM)30.36 "Hg (Jan 31, 12:52 AM)
Low15 °F (Feb 3, 6:52 AM)30% (Feb 4, 3:52 PM)29.49 "Hg (Jan 30, 2:52 AM)
Average33 °F65%29.98 "Hg
* Reported Jan 27 7:52 AM — Feb 11 7:59 AM, Bismarck, Weather by CustomWeather, © 2016

Note: Actual official high and low records may vary slightly from our data, if they occured in-between our weather recording intervals... More about our weather records

Advertising

Bismarck Weather History for the Previous 24 Hours

 ConditionsComfort  
Time TempWeatherWind HumidityBarometerVisibility
7:59 AM
Thu, Feb 11
20 °FLight snow. Overcast.6 mph78%30.12 "Hg2 mi
6:52 AM19 °FLight snow. Overcast.6 mph81%30.22 "Hg2 mi
5:52 AM19 °FLight snow. Mostly cloudy.8 mph77%30.23 "Hg3 mi
4:52 AM19 °FMostly cloudy.7 mph74%30.24 "Hg10 mi
3:52 AM19 °FMostly cloudy.5 mph74%30.24 "Hg10 mi
2:52 AM18 °FOvercast.5 mph77%30.27 "Hg10 mi
1:52 AM18 °FOvercast.5 mph74%30.28 "Hg10 mi
12:52 AM17 °FOvercast.6 mph76%30.28 "Hg10 mi
11:52 PM
Wed, Feb 10
17 °FOvercast.7 mph74%30.28 "Hg10 mi
10:52 PM17 °FOvercast.7 mph74%30.31 "Hg10 mi
9:52 PM18 °FOvercast.7 mph71%30.31 "Hg10 mi
9:00 PM19 °FMostly cloudy.9 mph71%30.20 "Hg10 mi
7:52 PM19 °FOvercast.6 mph71%30.28 "Hg10 mi
6:52 PM20 °FOvercast.7 mph71%30.26 "Hg10 mi
5:52 PM21 °FOvercast.10 mph71%30.24 "Hg10 mi
4:52 PM24 °FOvercast.9 mph68%30.20 "Hg10 mi
3:52 PM24 °FOvercast.8 mph68%30.16 "Hg10 mi
2:52 PM25 °FOvercast.9 mph66%30.11 "Hg10 mi
1:52 PM25 °FOvercast.8 mph66%30.09 "Hg10 mi
12:52 PM25 °FOvercast.9 mph66%30.06 "Hg10 mi
11:52 AM25 °FOvercast.6 mph69%30.03 "Hg10 mi
10:52 AM24 °FOvercast.6 mph68%30.01 "Hg10 mi
9:52 AM23 °FOvercast.12 mph74%29.98 "Hg10 mi
Weather by CustomWeather, © 2016

See weather overviewHow to use our weather pages